Showing default

OPS 7869 (DMSP 4B F1), 3266

Orbit data source: Space-Track

OPS 7869 (DMSP 4B F1), 3266 is a payload satellite owned by SAMSO (US) in SSO that was launched on Thu, 23 May 1968 UTC via a THOR BURNER 2 launch vehicle from the Air Force Western Test Range (AFWTR). Payloads include a variety of satellites, spacecraft, and rockets equipped with specific instruments for various scientific and technological missions. These include communications satellites like Starlink; space stations such as the ISS; scientific satellites like the Hubble; Earth observation satellites from companies like Planet Labs, Umbra, and HawkEye 360; GPS; miniature CubeSats for education and research; and military/defense satellites.

Loading next visibility...
OPS 7869 (DMSP 4B F1) details
Identifier
3266, 1968-042A
Orbit
SSO
Last TLE update16 hours ago
Origin
Flag of USSAMSO (US)
ManufacturerRCA/East Windsor
MissionNon-operational Defense Weather
Bus & MotorDMSP BLOCK 4B, Unknown motor
Mass79 kg wet, 79 kg dry
Launch date (UTC)
1968-05-23 (57 years ago)
Launch vehicle
THOR BURNER 2
Launch site
Air Force Western Test Range (AFWTR)
Object type
Payload
Rocket body
Debris
Shape & HBROct Cyl, 0.8 m
Radar Cross Section0.655 m², Medium (>0.1 m² and < 1m²)

Expand to show TLE details & history

TLE from 16 hours ago
0 OPS 7869 (DMSP 4B F1)
1 03266U 68042A   24356.57552691  .00000160  00000-0  10119-3 0  9999
2 03266  98.5813 197.1381 0053562  62.0340 298.6241 14.15708840836354
Epoch: 2024-12-21T13:48Z
Definitive object data (Epoch: 2024-12-21T13:48:45.525Z)
Latitude-0.00001°
Longitude-100.6763°
Altitude824.45 km
Speed7.45 km/s
True Right ascension13h 08m 33s
True Declination0° 00' 00"
Sunlit
Object was in daylight at TLE epoch
Visualization TLE readout
Latitude-63.83682°
Longitude62.19031°
Altitude902.802 km
Speed7.38 km/s
Apparent Right ascension19h 43m 28s
Apparent Declination-63° 09' 37"
Sunlit
Object is in daylight
Visualization observer readout
Local Sidereal Time05:18:31
Azimuth210.633° SW
Elevation-58.414°
Doppler factor1
Orbital elements
Apogee altitude875.706 km
Perigee altitude798.414 km
Semi-major axis7,215.197 km
Eccentricity0.0053562
Inclination98.5813°
RAAN197.1381°
Arg. of periapsis62.034°
True anomaly298.08361°
Mean anomaly298.6241°
Eccentric anomaly298.35403°
Mean motion3.54137 °/min
BSTAR0.00010119
Orbital period101.66 mins
Loading maneuver chart data...
Loading historical data...
Loading historical data...
Loading historical data...
Loading historical data...
Loading historical data...
Loading historical data...
Loading historical data...
Other satellites on launch #42 in the year 1968 (1968-05-23 UTC)

OPS 7869 (DMSP 4B F1) Visibility forecast

Observer location: undefined°, undefined

Span
Click to sort rows by Start time (UTC) header in descending order
Start Az.
Max El. time (UTC)
Max El. Az.
Max El.
End time (UTC)
End Az.
4 mins2024-12-22 12:02:48.426Z85.655° E2024-12-22 12:04:48.426Z62.291° ENE13.162°2024-12-22 12:06:48.426Z38.28° NE
9 mins2024-12-22 13:40:48.426Z171.735° S2024-12-22 13:44:48.426Z258.342° W44.35°2024-12-22 13:49:48.426Z343.645° N
8 mins2024-12-23 02:01:48.426Z32.252° NE2024-12-23 02:05:48.426Z113.302° SE36.37°2024-12-23 02:09:48.426Z170.706° S
6 mins2024-12-23 03:42:48.426Z333.666° NNW2024-12-23 03:45:48.426Z291.85° WNW20.537°2024-12-23 03:48:48.426Z253.309° W
|